Date String (YYYY-MM-DD hh:mm:ss) UTC,Instrument flags,absolute air pressure of the measurement (hPa),sample flow rate (lpm),inlet stack bypass flow (lpm),air temperature of the measurement (°C),ambient temperature measured by the external sensor (°C),aerosol sample conditioner tube jacket temperature (°C),OPC LED temperature (°C),internal box temperature (°C),relative humidity of the measurement (%),span deviation,mass concentration of particles derived from Lorenz-Mie calculation of OPC scattering (μg/m³),mass concentration of particles derived from Lorenz-Mie calculation of OPC scattering (μg/m³),mass concentration of particles derived from Lorenz-Mie calculation of OPC scattering (μg/m³)
DateTimeUTC,F1_M11,P_M11,Q1_M11,Q2_M11,T1_M11,T2_M11,T3_M11,T4_M11,T5_M11,U1_M11,ZSPAN_M11,X2_M11,X0_M11,X1_M11
2024-01-14 09:00:00,SystemResetWarning,0823.2,5.01,000.00,019.0,018.2,000.0,027.4,020.5,3.9,0000.0,0003.85,0007.92,0003.50
2024-01-14 09:01:00,SystemResetWarning,0823.2,5.01,000.00,019.1,018.9,000.0,027.4,020.9,3.9,0000.0,0003.84,0007.91,0003.49
2024-01-14 09:02:00,SystemResetWarning,0823.0,4.99,000.00,019.2,019.3,000.0,027.4,020.8,3.9,0000.0,0003.85,0007.80,0003.48
2024-01-14 09:03:00,SystemResetWarning,0823.0,4.98,000.00,019.2,019.0,000.0,027.4,020.3,3.9,0000.0,0003.84,0007.73,0003.47
2024-01-14 09:04:00,SystemResetWarning,0823.1,5.01,000.00,019.1,018.6,000.0,027.4,020.0,3.9,0000.0,0003.86,0007.75,0003.47
2024-01-14 09:05:00,SystemResetWarning,0823.1,5.01,000.00,019.0,018.4,000.0,027.4,020.0,3.9,0000.0,0003.85,0007.77,0003.46
2024-01-14 09:06:00,SystemResetWarning,0822.9,4.99,000.00,019.0,018.1,000.0,027.4,020.0,3.9,0000.0,0003.84,0007.46,0003.45
2024-01-14 09:07:00,SystemResetWarning,0823.0,4.99,000.00,018.9,017.8,000.0,027.4,020.0,3.9,0000.0,0003.81,0006.93,0003.44
2024-01-14 09:08:00,SystemResetWarning,0822.9,5.01,000.00,018.9,017.9,000.0,027.4,020.2,3.9,0000.0,0003.78,0006.20,0003.42
2024-01-14 09:09:00,SystemResetWarning,0823.1,5.01,000.00,019.0,018.5,000.0,027.4,020.6,3.9,0000.0,0003.78,0006.22,0003.40
2024-01-14 09:10:00,SystemResetWarning,0823.0,4.99,000.00,019.2,019.2,000.0,027.4,021.0,3.8,0000.0,0003.76,0006.26,0003.39
2024-01-14 09:11:00,SystemResetWarning,0822.9,4.98,000.00,019.2,019.2,000.0,027.4,020.7,3.8,0000.0,0003.74,0006.38,0003.38
2024-01-14 09:12:00,SystemResetWarning,0823.0,5.00,000.00,019.1,018.9,000.0,027.4,020.2,3.8,0000.0,0003.74,0006.82,0003.37
2024-01-14 09:13:00,SystemResetWarning,0823.1,5.00,000.00,019.0,018.5,000.0,027.4,020.0,3.9,0000.0,0003.74,0006.79,0003.36
2024-01-14 09:14:00,SystemResetWarning,0823.0,5.00,000.00,019.0,018.2,000.0,027.4,020.0,3.9,0000.0,0003.76,0007.76,0003.36
2024-01-14 09:15:00,SystemResetWarning,0822.9,5.00,000.00,018.9,018.0,000.0,027.4,020.0,3.9,0000.0,0003.76,0008.37,0003.35
2024-01-14 09:16:00,SystemResetWarning,0823.0,5.01,000.00,018.9,017.8,000.0,027.4,020.1,3.9,0000.0,0003.76,0008.39,0003.34
2024-01-14 09:17:00,SystemResetWarning,0823.2,5.00,000.00,019.0,018.2,000.0,027.4,020.5,3.9,0000.0,0003.76,0008.48,0003.33
2024-01-14 09:18:00,SystemResetWarning,0823.0,5.00,000.00,019.1,018.9,000.0,027.4,020.9,3.8,0000.0,0003.76,0008.55,0003.32
2024-01-14 09:19:00,SystemResetWarning,0822.9,5.00,000.00,019.2,019.3,000.0,027.4,020.9,3.8,0000.0,0003.77,0008.64,0003.32
2024-01-14 09:20:00,SystemResetWarning,0823.0,4.99,000.00,019.2,019.1,000.0,027.4,020.3,3.8,0000.0,0003.80,0008.68,0003.34
2024-01-14 09:21:00,SystemResetWarning,0823.0,4.99,000.00,019.1,018.7,000.0,027.4,020.0,3.8,0000.0,0003.85,0008.78,0003.36
2024-01-14 09:22:00,SystemResetWarning,0822.9,5.01,000.00,019.0,018.4,000.0,027.4,020.0,3.8,0000.0,0003.89,0008.79,0003.38
2024-01-14 09:23:00,SystemResetWarning,0823.0,5.01,000.00,018.9,018.1,000.0,027.4,020.0,3.8,0000.0,0003.96,0008.90,0003.42
2024-01-14 09:24:00,SystemResetWarning,0823.0,5.01,000.00,018.9,017.9,000.0,027.4,020.0,3.8,0000.0,0003.98,0009.07,0003.46
2024-01-14 09:25:00,SystemResetWarning,0823.1,5.00,000.00,018.9,017.8,000.0,027.4,020.0,3.8,0000.0,0004.00,0008.53,0003.51
2024-01-14 09:26:00,SystemResetWarning,0823.1,5.01,000.00,018.9,018.1,000.0,027.4,020.4,3.8,0000.0,0004.02,0007.77,0003.54
2024-01-14 09:27:00,SystemResetWarning,0823.2,5.00,000.00,019.1,018.8,000.0,027.4,020.8,3.8,0000.0,0004.09,0008.04,0003.59
2024-01-14 09:28:00,SystemResetWarning,0823.2,5.00,000.00,019.2,019.3,000.0,027.4,020.9,3.8,0000.0,0004.13,0008.06,0003.64
2024-01-14 09:29:00,SystemResetWarning,0823.0,4.99,000.00,019.2,019.1,000.0,027.4,020.4,3.8,0000.0,0004.19,0008.26,0003.70
2024-01-14 09:30:00,SystemResetWarning,0823.0,5.00,000.00,019.1,018.7,000.0,027.4,020.0,3.8,0000.0,0004.23,0008.64,0003.75
2024-01-14 09:31:00,SystemResetWarning,0823.1,5.02,000.00,019.0,018.4,000.0,027.4,020.0,3.8,0000.1,0004.27,0008.68,0003.80
2024-01-14 09:32:00,SystemResetWarning,0823.0,5.01,000.00,019.0,018.1,000.0,027.4,020.0,3.8,0001.5,0004.30,0008.70,0003.84
2024-01-14 09:33:00,SystemResetWarning,0823.0,5.00,000.00,018.9,017.9,000.0,027.4,020.0,3.8,0001.1,0004.32,0008.72,0003.87
2024-01-14 09:34:00,SystemResetWarning,0823.1,5.00,000.00,018.9,017.8,000.0,027.4,020.2,3.8,0000.2,0004.29,0008.43,0003.90
2024-01-14 09:35:00,SystemResetWarning,0823.0,5.00,000.00,019.0,018.4,000.0,027.4,020.6,3.8,0000.0,0004.31,0008.23,0003.92
2024-01-14 09:36:00,SystemResetWarning,0823.0,5.00,000.00,019.1,019.1,000.0,027.4,020.9,3.8,0000.2,0004.34,0008.52,0003.94
2024-01-14 09:37:00,SystemResetWarning,0822.9,5.00,000.00,019.2,019.2,000.0,027.4,020.6,3.8,0000.9,0004.38,0009.23,0003.97
2024-01-14 09:38:00,SystemResetWarning,0822.9,5.00,000.00,019.1,018.9,000.0,027.4,020.1,3.8,0000.9,0004.42,0009.78,0004.00
2024-01-14 09:39:00,SystemResetWarning,0823.0,4.99,000.00,019.0,018.6,000.0,027.4,020.0,3.8,0000.4,0004.45,0009.91,0004.02
2024-01-14 09:40:00,SystemResetWarning,0822.9,5.00,000.00,019.0,018.3,000.0,027.4,020.0,3.8,0000.0,0004.49,0009.89,0004.04
2024-01-14 09:41:00,SystemResetWarning,0823.1,4.99,000.00,018.9,018.1,000.0,027.4,020.0,3.8,0000.0,0004.53,0009.82,0004.05
2024-01-14 09:42:00,SystemResetWarning,0823.0,5.00,000.00,018.9,017.9,000.0,027.4,020.0,3.8,0000.0,0004.57,0010.47,0004.06
2024-01-14 09:43:00,SystemResetWarning,0822.8,5.01,000.00,018.9,017.8,000.0,027.4,020.2,3.8,0000.0,0004.60,0010.57,0004.07
2024-01-14 09:44:00,SystemResetWarning,0822.9,5.02,000.00,019.0,018.4,000.0,027.4,020.6,3.8,0000.0,0004.63,0010.58,0004.10
2024-01-14 09:45:00,SystemResetWarning,0823.1,5.00,000.00,019.1,019.1,000.0,027.4,020.9,3.8,0000.0,0004.62,0010.55,0004.10
2024-01-14 09:46:00,SystemResetWarning,0822.9,4.99,000.00,019.2,019.3,000.0,027.4,020.7,3.8,0000.0,0004.62,0010.53,0004.10
2024-01-14 09:47:00,SystemResetWarning,0823.3,4.99,000.00,019.1,019.0,000.0,027.3,020.3,3.8,0000.0,0004.66,0010.49,0004.11
2024-01-14 09:48:00,SystemResetWarning,0823.1,5.01,000.00,019.0,018.7,000.0,027.3,020.0,3.8,0000.0,0004.65,0009.83,0004.09
2024-01-14 09:49:00,SystemResetWarning,0822.9,5.01,000.00,019.0,018.4,000.0,027.4,020.0,3.8,0000.0,0004.62,0009.13,0004.09
2024-01-14 09:50:00,SystemResetWarning,0823.1,5.00,000.00,018.9,018.2,000.0,027.4,020.0,3.8,0000.0,0004.62,0009.08,0004.08
2024-01-14 09:51:00,SystemResetWarning,0823.0,5.00,000.00,018.9,018.0,000.0,027.4,020.0,3.8,0000.0,0004.60,0008.96,0004.07
2024-01-14 09:52:00,SystemResetWarning,0823.0,4.99,000.00,018.9,017.8,000.0,027.4,020.0,3.8,0000.0,0004.55,0008.60,0004.07
2024-01-14 09:53:00,SystemResetWarning,0823.1,5.00,000.00,018.9,018.1,000.0,027.4,020.4,3.8,0000.0,0004.52,0007.86,0004.07
2024-01-14 09:54:00,SystemResetWarning,0822.9,5.01,000.00,019.1,018.8,000.0,027.3,020.8,3.8,0000.0,0004.49,0007.77,0004.06
2024-01-14 09:55:00,SystemResetWarning,0822.9,5.00,000.00,019.2,019.3,000.0,027.4,021.0,3.8,0000.0,0004.48,0007.72,0004.06
2024-01-14 09:56:00,SystemResetWarning,0823.0,4.99,000.00,019.2,019.3,000.0,027.4,020.7,3.8,0000.0,0004.50,0007.75,0004.07
2024-01-14 09:57:00,SystemResetWarning,0823.0,5.00,000.00,019.2,019.0,000.0,027.4,020.3,3.8,0000.0,0004.50,0007.72,0004.08
2024-01-14 09:58:00,SystemResetWarning,0822.9,5.00,000.00,019.1,018.8,000.0,027.3,020.1,3.8,0000.0,0004.51,0007.68,0004.09
2024-01-14 09:59:00,SystemResetWarning,0823.0,5.00,000.00,019.0,018.5,000.0,027.3,020.0,3.8,0000.0,0004.53,0007.73,0004.11
